www.pogodaiklimat.ru

Погода и климат >> Архив погоды >> Таиланд >> Lop Buri


ПОГОДА в Lop Buri

  • Прогноз погоды в Lop Buri
  • Монитор погоды в Lop Buri
  • Климат города

АРХИВ ПОГОДЫ в Lop Buri

Время (UTC), дата Ветер
(напр.,м/с)
 
Видим.   Явления Облачность Т
(С)
Тd
(С)
f
(%)
Тe
(С)
Тes
(С)
Комфортность P
(гПа)
Po
(гПа)
Тmin
(С)
Tmax
(С)
R
(мм)
R24
(мм)
S
(см)
18 19.06 штиль 0 6000 м слабый дождь {гроза} 10/6 600 м
[Cb cap Ac As]
+25.9 +25.0 95 +37 +37 очень
душно
1009.0 1007.7 3
21 19.06 штиль 0 6000 м дымка {дождь} 10/4 600 м
[Cu Sc Ac cuf Cs]
+25.5 +24.8 96 +36 +36 очень
душно
1007.3 1006.0 0.9
00 20.06 штиль 0 7000 м дымка {дождь} 9/3 600 м
[Cu hum As op Cs]
+25.5 +24.9 96 +36 +37 очень
душно
1007.5 1006.2 +25.0 34
03 20.06 Ю 2 9000 м дымка 8/4 600 м
[Sc Ac trans Cs]
+30.4 +24.9 72 +43 +50 опасность
перегрева
1009.0 1007.7
06 20.06 ЮЗ 2 9000 м дымка 9/6 600 м
[Cu Sc Ac und Cs]
+33.0 +25.4 64 +47 +53 опасность
перегрева
1007.6 1006.3
09 20.06 ЮЗ 4 10 км 8/8 600 м
[Cu Sc Ac trans Cs]
+33.2 +25.2 63 +47 +48 опасность
перегрева
1005.2 1003.9
12 20.06 Ю 1 9000 м дымка 8/5 600 м
[Cu Sc Ac und Cs]
+30.6 +24.6 70 +43 +43 опасность
перегрева
1005.5 1004.2 +33.7
15 20.06 Ю 2 8000 м дымка 8/3 600 м
[Sc Ac und Cs]
+29.3 +25.3 79 +43 +43 опасность
перегрева
1007.8 1006.5
18 20.06 Ю 2 8000 м дымка 9/4 600 м
[Sc Ac und Cs]
+28.2 +25.1 83 +41 +41 опасность
перегрева
1007.7 1006.4
21 20.06 Ю 1 8000 м дымка 8/3 600 м
[Sc Ac und Cs]
+27.5 +25.4 88 +40 +40 очень
душно
1006.4 1005.1
00 21.06 Ю 1 8000 м дымка 8/4 600 м
[Sc Ac und Cs]
+27.5 +25.7 90 +41 +41 опасность
перегрева
1007.4 1006.1 +27.0
03 21.06 ЮЗ 4 10 км 8/4 600 м
[Sc Ac und Cs]
+30.5 +24.8 72 +44 +48 опасность
перегрева
1008.6 1007.3
06 21.06 штиль 0 12 км 8/4 600 м
[Sc Ac und Cs]
+32.5 +23.3 58 +43 +54 опасность
перегрева
1006.8 1005.5
09 21.06 СЗ 1 12 км 6/3 600 м
[Cu med, cong Ac lent Cs]
+33.9 +24.9 59 +47 +52 опасность
перегрева
1004.1 1002.8
12 21.06 штиль 0 8000 м дымка 9/5 600 м
[Cb cap Ac und Cs]
+31.5 +25.7 71 +46 +46 опасность
перегрева
1004.9 1003.6 +34.1
15 21.06 В 2 8000 м гроза, ливневой дождь 10/5 600 м
[Cb cap Ac As Cs]
+24.5 +23.3 93 +33 +33 очень
душно
1008.4 1007.1 21
18 21.06 ЮВ 2 7000 м слабый дождь {гроза} 10/5 600 м
[Sc Ac As Cs]
+25.5 +24.9 96 +36 +36 очень
душно
1008.1 1006.8 6
21 21.06 ЮВ 4 7000 м в посл. час дождь 10/5 600 м
[Sc Ac As Cs]
+25.7 +25.0 96 +37 +37 очень
душно
1006.0 1004.7 1
00 22.06 В 2 7000 м дымка {дождь} 10/4 600 м
[Sc Ac As Cs]
+25.9 +24.7 93 +37 +37 очень
душно
1007.7 1006.4 +25.4
03 22.06 Ю 2 9000 м дымка 8/0
[Ac und Cs]
+29.5 +25.7 80 +44 +51 опасность
перегрева
1008.8 1007.5
06 22.06 ЮЗ 4 10 км 9/8 600 м
[Cu Sc Ac lent Cs]
+32.8 +24.9 63 +46 +48 опасность
перегрева
1007.3 1006.0
09 22.06 В 1 10 км 8/5 600 м
[Cu Sc Ac lent Cs]
+33.5 +24.4 59 +46 +49 опасность
перегрева
1004.4 1003.2
12 22.06 штиль 0 9000 м дымка 8/5 600 м
[Cu Sc Ac lent Cs]
+29.4 +24.5 75 +42 +42 опасность
перегрева
1005.4 1004.1 +34.5
15 22.06 ЮВ 2 8000 м дымка {дождь} 8/3 600 м
[Cu hum Ac lent Cs]
+27.0 +24.7 87 +38 +38 очень
душно
1008.0 1006.7 0.0
18 22.06 штиль 0 7000 м дымка {дождь} 5/3 600 м
[Cu hum Ac lent Cs]
+26.5 +24.5 89 +37 +37 очень
душно
1007.2 1005.9
21 22.06 штиль 0 7000 м дымка 8/3 600 м
[Cu hum Ac lent Cs]
+26.5 +24.2 87 +37 +37 очень
душно
1006.4 1005.1
00 23.06 В 3 9000 м дымка 8/3 600 м
[Cu hum Ac und Cs]
+27.0 +23.8 83 +37 +38 очень
душно
1007.1 1005.8 +25.7 0.0
03 23.06 Ю 2 9000 м дымка 8/3 600 м
[Cu med, cong Ac lent Cs]
+29.1 +24.2 75 +41 +48 опасность
перегрева
1008.3 1007.0
06 23.06 Ю 2 10 км 6/4 600 м
[Cu med, cong Ac trans Cs]
+33.4 +24.5 60 +46 +57 опасность
перегрева
1006.0 1004.8
09 23.06 ЮЗ 4 10 км 6/5 600 м
[Cu med, cong Ac lent Cs]
+34.0 +24.0 56 +46 +48 опасность
перегрева
1003.6 1002.3
12 23.06 Ю 2 9000 м дымка 5/3 600 м
[Cu med, cong Ac lent Cs]
+31.1 +24.1 66 +43 +43 опасность
перегрева
1003.6 1002.3 +34.3
15 23.06 СЗ 2 8000 м дымка 10/8 600 м
[Cu Sc Ac und Cs]
+27.4 +24.4 84 +39 +39 очень
душно
1007.0 1005.7
18 23.06 штиль 0 8000 м дымка {гроза} 9/5 600 м
[Sc Ac und Cs]
+27.0 +25.9 94 +40 +40 очень
душно
1005.7 1004.4 0.3
21 23.06 Ю 2 8000 м дымка 9/4 600 м
[Sc Ac und Cs]
+27.0 +25.1 89 +39 +39 очень
душно
1004.9 1003.6
00 24.06 Ю 2 8000 м дымка 10/5 600 м
[Sc Ac und Cs]
+26.8 +23.9 84 +37 +37 очень
душно
1005.9 1004.6 +26.4 0.3
03 24.06 штиль 0 10 км 9/4 600 м
[Sc Ac und Cs]
+30.2 +23.9 69 +42 +49 опасность
перегрева
1006.5 1005.2
06 24.06 Ю 1 12 км 8/4 600 м
[Cu med, cong Ac lent Cs]
+33.5 +24.1 58 +45 +55 опасность
перегрева
1004.7 1003.4
09 24.06 ЮЗ 1 12 км 6/3 600 м
[Cu med, cong Ac lent Cs]
+34.0 +22.4 51 +43 +48 опасность
перегрева
1002.0 1000.7
12 24.06 штиль 0 8000 м мгла 8/5 600 м
[Cb cap Ac lent Cs]
+31.5 +23.4 62 +42 +42 опасность
перегрева
1003.1 1001.8 +34.9
15 24.06 штиль 0 8000 м дымка {дождь} 8/4 600 м
[Sc Ac und Cs]
+28.7 +25.4 82 +42 +42 опасность
перегрева
1005.9 1004.6 0.5
18 24.06 штиль 0 7000 м дымка {дождь} 8/4 600 м
[Sc Ac und Cs]
+27.9 +25.0 84 +40 +40 очень
душно
1005.6 1004.3 0.5
21 24.06 ЮВ 3 7000 м дымка 8/4 600 м
[Sc Ac und Cs]
+27.5 +24.0 81 +38 +38 очень
душно
1005.3 1004.0
00 25.06 Ю 2 7000 м дымка 10/4 600 м
[Sc Ac As Cs]
+26.6 +23.4 83 +36 +37 очень
душно
1005.7 1004.4 +26.6
03 25.06 Ю 2 10 км 8/4 600 м
[Sc Ac As Cs]
+29.5 +23.9 72 +41 +47 опасность
перегрева
1007.0 1005.7
06 25.06 штиль 0 10 км 8/3 600 м
[Cu hum As op Cs]
+32.4 +24.6 64 +45 +58 опасность
перегрева
1005.5 1004.2
09 25.06 ЮВ 2 10 км 9/4 600 м
[Cu med, cong As op Cs]
+32.5 +24.5 63 +45 +48 опасность
перегрева
1003.2 1001.9
12 25.06 СЗ 2 6000 м слабый дождь 10/5 600 м
[Sc Ac As Cs]
+27.5 +25.5 89 +40 +40 очень
душно
1004.9 1003.6 +33.0 3
15 25.06 штиль 0 7000 м дымка {дождь} 8/4 600 м
[Cu hum Ac lent Cs]
+26.4 +24.7 90 +37 +37 очень
душно
1007.5 1006.2 0.1
18 25.06 Ю 1 6000 м дымка {дождь} 10/5 600 м
[Cu Sc Ac As Cs]
+27.0 +25.0 89 +39 +39 очень
душно
1007.7 1006.3
21 25.06 штиль 0 6000 м дымка 10/3 600 м
[Cu med, cong Ac As Cs]
+26.6 +25.2 92 +38 +38 очень
душно
1006.7 1005.4
00 26.06 штиль 0 7000 м дымка 6/3 600 м
[Cu hum Ac und Cs]
+26.8 +24.2 86 +37 +39 очень
душно
1007.3 1006.0 +26.2 3
03 26.06 Ю 2 9000 м мгла 6/3 600 м
[Cu med, cong Ac lent Cs]
+31.8 +23.4 61 +43 +51 опасность
перегрева
1008.1 1006.8
06 26.06 Ю 3 10 км 6/5 600 м
[Cu med, cong Ac lent Cs]
+32.3 +23.4 59 +43 +51 опасность
перегрева
1006.8 1005.5
09 26.06 ЮЗ 4 10 км 5/4 600 м
[Cu med, cong Ac lent Cs]
+34.0 +24.8 59 +47 +50 опасность
перегрева
1004.6 1003.4
12 26.06 ЮЗ 3 9000 м дымка 8/6 600 м
[Cu Sc Ac und Cs]
+30.6 +24.0 68 +42 +42 опасность
перегрева
1005.4 1004.1 +34.1
15 26.06 ЮВ 1 8000 м дымка 5/3 600 м
[Sc Ac lent Cs]
+29.0 +25.0 79 +42 +42 опасность
перегрева
1007.1 1005.8

 

Местоположение метеостанции Lop Buri (Таиланд): широта 14.80 долгота 100.61 высота над уровнем моря 11 м.

В архиве по умолчанию представлена погода в Lop Buri за последнюю неделю. Архивные данные за месяц целиком и за предыдущие месяцы, начиная с января 2011 года, Вы можете получить, выбрав интересующий диапазон дат из раскрывающегося списка и нажав кнопку "Ввод!".

Внимание! Время в таблицах - всемирное. Для получения местного времени необходимо прибавить поправку, которая в Lop Buri равна 7 ч.

Смотрите также архив погоды в соседних городах и на ближайших метеорологических станциях:

Погода в Ayutthaya (Таиланд) (33 км)
Погода в Laemchabang (Таиланд) (43 км)
Погода в Saraburi (Таиланд) (46 км)
Погода в Chainat Agromet (Таиланд) (60 км)
Погода в Takfa Agromet (Таиланд) (62 км)
Погода в Suphan Buri (Таиланд) (63 км)
Погода в Pathumthani (Таиланд) (78 км)
Погода в Pakchong Agromet (Таиланд) (79 км)
Погода в Bua Chum (Таиланд) (81 км)
Погода в Uthai Thani (Таиланд) (89 км)

Пояснения к столбцам:

Ветер - указаны скорость ветра в м/с - средняя за 10 мин, порывы в срок и между сроками (в фигурных скобках) и направление, откуда дует ветер: С - северный, СВ - северо-восточный, В - восточный, ЮВ - юго-восточный, Ю - южный, ЮЗ - юго-западный, З - западный, СЗ - северо-западный.
Видимость - горизонтальная дальность видимости в метрах или километрах. При видимости от 1 до 10 км при отсутствии осадков обычно наблюдается дымка, при ухудшении видимости до 1 км и менее - туман. В сухую погоду видимость может ухудшаться дымом, пылью или мглою.
Явления - указаны атмосферные явления, наблюдавшиеся в срок или в последний час перед сроком; фигурными скобками обозначены явления, наблюдавшиеся между сроками (за 1-3 часа до срока); квадратными скобками обозначены град или гололедные отложения с указанием их диаметра в мм.
Облачность - указаны через наклонную черту общая и нижняя облачность в баллах и высота нижней границы облаков в метрах; квадратными скобками обозначены формы облаков: Ci - перистые, Cs - перисто-слоистые, Cc - перисто-кучевые, Ac - высококучевые, As - высокослоистые, Sc - слоисто-кучевые, Ns - слоисто-дождевые, Cu - кучевые, Cb - кучево-дождевые. Подробнее классификацию облаков см. в Атласе облаков (PDF).
T - Температура воздуха - температура, измеренная на высоте 2 м над землей.
Td - Температура точки росы - температура, при понижении до которой содержащийся в воздухе водяной пар достигнет насыщения.
f - Относительная влажность воздуха - влажноcть воздуха, измеренная на высоте 2 м над землей.
Te - Эффективная температура - температура, которую ощущает одетый по сезону человек в тени. Характеристика душности погоды. При расчете учитывается влияние влажности воздуха и скорости ветра на теплоощущения человека.
Tes - Эффективная температура на солнце - температура, которую ощущает человек, с поправкой на солнечный нагрев. Характеристика знойности погоды. Зависит от высоты солнца над горизонтом, облачности и скорости ветра. Ночью, в пасмурную погоду, а также при ветре 12 м/с и более поправка равна нулю.
P - Атмосферное давление - приведенное к уровню моря атмосферное давление.
Po - Атмосферное давление - измеренное на уровне метеостанции атмосферное давление.
Tmin - Минимальная температура - минимум температуры воздуха на высоте 2 м над землей.
Tmax - Максимальная температура - максимум температуры воздуха на высоте 2 м над землей.
R - Количество осадков - Количество выпавших осадков за период времени, мм. При наведении курсора мыши на число - период времени, за который выпало указанное количество осадков.
R24 - Количество осадков - Количество выпавших осадков за 24 часа, мм.
S - Снежный покров - Высота снежного покрова, см. При наведении курсора мыши на число - состояние снежного покрова и степень покрытия местности в баллах.